Lacon, IL

7:45 PM CDT on August 18, 2017 (GMT -0500)
Lacon

Weather History for KC75 - May, 2014

Change the Weather History Date:

Wednesday, May 7, 2014

  Actual Average (KVYS) Record (KVYS)
Temperature  
Mean Temperature 72 °F -  
Max Temperature 86 °F 70 °F 87 °F (2007)
Min Temperature 59 °F 46 °F 25 °F (1989)
Cooling Degree Days 8    
Growing Degree Days 22 (Base 50)    
Moisture  
Dew Point 57 °F    
Average Humidity 59    
Maximum Humidity 72    
Minimum Humidity 40    
Precipitation  
Precipitation 0.00 in - - ()
Sea Level Pressure  
Sea Level Pressure 29.75 in    
Wind  
Wind Speed 9 mph (SSE)    
Max Wind Speed 18 mph    
Max Gust Speed 28 mph    
Visibility 10 miles    
Events Rain , Thunderstorm    
Averages and records for this station are not official NWS values.
T = Trace of Precipitation, MM = Missing Value Source: NWS Daily Summary

Daily Weather History Graph

Daily Weather History Graph

Search for Another Location

Airport or City:

Trip Planner

Search our weather history database for the weather conditions in past years. The results will help you decide how hot, cold, wet, or windy it might be!

Date:

Astronomy

May. 07, 2014 Rise Set
Actual Time 5:47 AM CDT 8:00 PM CDT
Civil Twilight 5:17 AM CDT 8:30 PM CDT
Nautical Twilight 4:40 AM CDT 9:08 PM CDT
Astronomical Twilight 3:59 AM CDT 9:49 PM CDT
Moon 1:02 PM CDT (5/7) 1:50 AM CDT (5/7)
Length of Visible Light 15h 13m
Length of Day
14h 12m
First Quarter, 55% of the Moon is Illuminated
May 7
First Quarter
May 14
Full
May 21
Last Quarter
May 28
New
Jun 5
First Quarter

Hourly Weather History & Observations

Time (CDT) Temp. Heat Index Dew Point Humidity Pressure Visibility Wind Dir Wind Speed Gust Speed Precip Events Conditions
12:15 AM 64.6 °F - 46.9 °F 53% 29.76 in 10.0 mi East 9.2 mph 16.1 mph N/A   Clear
12:35 AM 64.0 °F - 47.5 °F 55% 29.74 in 10.0 mi ESE 15.0 mph 18.4 mph N/A   Clear
12:55 AM 64.0 °F - 47.5 °F 55% 29.76 in 10.0 mi ESE 6.9 mph 20.7 mph N/A   Clear
1:15 AM 63.5 °F - 47.7 °F 56% 29.74 in 10.0 mi ESE 9.2 mph - N/A   Clear
1:35 AM 63.9 °F - 48.4 °F 57% 29.74 in 10.0 mi ESE 10.4 mph - N/A   Clear
1:55 AM 63.5 °F - 48.7 °F 59% 29.73 in 10.0 mi ESE 9.2 mph - N/A   Clear
2:15 AM 63.1 °F - 49.1 °F 60% 29.74 in 10.0 mi ESE 8.1 mph - N/A   Clear
2:35 AM 62.6 °F - 49.1 °F 61% 29.73 in 10.0 mi ESE 10.4 mph 17.3 mph N/A   Clear
2:55 AM 62.1 °F - 49.8 °F 64% 29.74 in 10.0 mi Calm Calm - N/A   Clear
3:15 AM 61.0 °F - 49.8 °F 67% 29.74 in 10.0 mi SE 4.6 mph - N/A   Clear
3:35 AM 61.2 °F - 49.8 °F 66% 29.73 in 10.0 mi ESE 3.5 mph - N/A   Clear
3:55 AM 60.1 °F - 49.6 °F 68% 29.73 in 10.0 mi East 5.8 mph - N/A   Clear
4:15 AM 60.1 °F - 50.0 °F 69% 29.74 in 10.0 mi ESE 6.9 mph - N/A   Clear
4:35 AM 59.7 °F - 50.5 °F 72% 29.73 in 10.0 mi Calm Calm - N/A   Clear
4:55 AM 59.7 °F - 50.4 °F 71% 29.74 in 10.0 mi East 8.1 mph - N/A   Clear
5:15 AM 59.5 °F - 50.2 °F 71% 29.73 in 10.0 mi East 10.4 mph - N/A   Clear
5:35 AM 60.3 °F - 50.5 °F 70% 29.74 in 10.0 mi East 10.4 mph - N/A   Clear
5:55 AM 60.1 °F - 50.5 °F 71% 29.74 in 10.0 mi East 10.4 mph - N/A   Clear
6:15 AM 59.5 °F - 50.2 °F 71% 29.75 in 10.0 mi East 11.5 mph - N/A   Clear
6:35 AM 60.3 °F - 50.5 °F 70% 29.76 in 10.0 mi East 9.2 mph - N/A   Clear
6:55 AM 60.1 °F - 50.4 °F 70% 29.77 in 10.0 mi East 9.2 mph - N/A   Clear
7:15 AM 61.0 °F - 51.1 °F 70% 29.78 in 10.0 mi ESE 6.9 mph - N/A   Clear
7:35 AM 63.9 °F - 53.1 °F 68% 29.78 in 10.0 mi ESE 5.8 mph - N/A   Clear
7:55 AM 64.9 °F - 54.7 °F 69% 29.79 in 10.0 mi SSE 4.6 mph - N/A   Clear
8:15 AM 66.4 °F - 55.4 °F 68% 29.78 in 10.0 mi SE 5.8 mph - N/A   Clear
8:35 AM 68.0 °F - 55.9 °F 65% 29.76 in 10.0 mi SE 8.1 mph - N/A   Clear
8:55 AM 69.6 °F - 57.0 °F 64% 29.77 in 10.0 mi South 6.9 mph - N/A   Clear
9:15 AM 69.4 °F - 57.0 °F 65% 29.78 in 10.0 mi SW 4.6 mph - N/A   Clear
9:35 AM 68.5 °F - 57.2 °F 67% 29.78 in 10.0 mi Calm Calm - N/A   Clear
9:55 AM 68.2 °F - 58.1 °F 70% 29.79 in 10.0 mi West 5.8 mph - N/A   Clear
10:15 AM 68.9 °F - 58.1 °F 68% 29.75 in 10.0 mi East 5.8 mph - N/A   Clear
10:35 AM 70.9 °F - 60.1 °F 69% 29.76 in 10.0 mi South 3.5 mph - N/A   Clear
10:55 AM 74.3 °F - 60.1 °F 61% 29.78 in 10.0 mi WNW 4.6 mph - N/A   Clear
11:15 AM 75.2 °F - 60.6 °F 60% 29.79 in 10.0 mi WNW 3.5 mph - N/A   Clear
11:35 AM 77.7 °F - 60.1 °F 54% 29.78 in 10.0 mi SW 9.2 mph - N/A   Clear
11:55 AM 79.3 °F - 62.1 °F 55% 29.77 in 10.0 mi South 9.2 mph - N/A   Clear
12:15 PM 80.6 °F 81.7 °F 62.2 °F 53% 29.76 in 10.0 mi South 6.9 mph - N/A   Clear
12:35 PM 82.8 °F 83.8 °F 62.8 °F 51% 29.74 in 10.0 mi South 10.4 mph 16.1 mph N/A   Clear
12:55 PM 81.9 °F 82.8 °F 61.9 °F 51% 29.75 in 10.0 mi WSW 15.0 mph 19.6 mph N/A   Clear
1:15 PM 82.4 °F 83.4 °F 62.6 °F 51% 29.76 in 10.0 mi WSW 11.5 mph 19.6 mph N/A   Clear
1:35 PM 83.5 °F 84.3 °F 62.2 °F 49% 29.75 in 10.0 mi WSW 10.4 mph 17.3 mph N/A Thunderstorm Clear
1:55 PM 83.3 °F 84.3 °F 62.6 °F 50% 29.74 in 10.0 mi SW 8.1 mph - N/A Thunderstorm Clear
2:15 PM 82.2 °F 83.0 °F 62.1 °F 50% 29.76 in 10.0 mi SW 13.8 mph 19.6 mph N/A Thunderstorm Clear
2:35 PM 81.1 °F 82.1 °F 61.9 °F 52% 29.76 in 10.0 mi SW 11.5 mph - N/A   Clear
2:55 PM 80.1 °F 81.4 °F 62.4 °F 55% 29.76 in 10.0 mi SW 10.4 mph - N/A   Clear
3:15 PM 78.3 °F - 63.3 °F 60% 29.74 in 10.0 mi SSE 6.9 mph - N/A   Clear
3:35 PM 78.8 °F - 64.4 °F 61% 29.72 in 10.0 mi SSE 8.1 mph - N/A   Clear
3:55 PM 80.1 °F 81.5 °F 63.3 °F 56% 29.71 in 10.0 mi SSE 10.4 mph - N/A   Clear
4:15 PM 83.1 °F 84.6 °F 64.6 °F 53% 29.72 in 10.0 mi Calm Calm - N/A   Clear
4:35 PM 85.3 °F 86.6 °F 64.4 °F 49% 29.72 in 10.0 mi South 15.0 mph - N/A   Clear
4:55 PM 86.4 °F 86.3 °F 61.0 °F 42% 29.71 in 10.0 mi South 15.0 mph 19.6 mph N/A   Clear
5:15 PM 85.5 °F 85.2 °F 60.1 °F 42% 29.71 in 10.0 mi South 15.0 mph - N/A Thunderstorm Clear
5:35 PM 84.7 °F 85.4 °F 62.4 °F 47% 29.71 in 10.0 mi SSE 12.7 mph - N/A Rain , Thunderstorm Light Thunderstorms and Rain
5:55 PM 86.0 °F 86.3 °F 62.1 °F 44% 29.72 in 10.0 mi SSE 16.1 mph 20.7 mph N/A   Clear
6:15 PM 85.1 °F 85.0 °F 60.3 °F 43% 29.73 in 10.0 mi South 18.4 mph 27.6 mph N/A   Clear
6:35 PM 84.4 °F 83.7 °F 57.4 °F 40% 29.73 in 10.0 mi South 11.5 mph 23.0 mph N/A   Clear
6:55 PM 83.5 °F 82.9 °F 57.7 °F 41% 29.73 in 10.0 mi South 10.4 mph 20.7 mph N/A   Clear
7:15 PM 82.6 °F 82.3 °F 57.9 °F 43% 29.73 in 10.0 mi South 16.1 mph 23.0 mph N/A   Clear
7:35 PM 81.0 °F 81.2 °F 58.5 °F 46% 29.74 in 10.0 mi South 17.3 mph 23.0 mph N/A   Clear
7:55 PM 79.5 °F - 59.9 °F 51% 29.74 in 10.0 mi South 10.4 mph 20.7 mph N/A   Clear
8:15 PM 78.6 °F - 60.1 °F 53% 29.75 in 10.0 mi South 12.7 mph 24.2 mph N/A   Clear
8:35 PM 77.2 °F - 60.1 °F 55% 29.75 in 10.0 mi South 12.7 mph 18.4 mph N/A   Clear
8:55 PM 76.1 °F - 60.1 °F 57% 29.76 in 10.0 mi South 9.2 mph - N/A   Clear
9:15 PM 75.4 °F - 60.1 °F 59% 29.76 in 10.0 mi South 12.7 mph - N/A   Clear
9:35 PM 74.8 °F - 60.1 °F 60% 29.76 in 10.0 mi SSE 10.4 mph - N/A   Clear
9:55 PM 74.3 °F - 60.3 °F 61% 29.76 in 10.0 mi SSE 11.5 mph - N/A   Clear
10:15 PM 73.8 °F - 60.1 °F 62% 29.76 in 10.0 mi South 10.4 mph 17.3 mph N/A   Clear
10:35 PM 73.2 °F - 59.9 °F 63% 29.76 in 10.0 mi South 11.5 mph 16.1 mph N/A   Clear
10:55 PM 73.4 °F - 59.9 °F 63% 29.76 in 10.0 mi South 12.7 mph 17.3 mph N/A   Clear
11:15 PM 73.6 °F - 59.2 °F 61% 29.76 in 10.0 mi South 11.5 mph 17.3 mph N/A   Clear
11:35 PM 73.4 °F - 59.0 °F 61% 29.76 in 10.0 mi South 9.2 mph - N/A   Clear
11:55 PM 73.2 °F - 59.2 °F 61% 29.76 in 10.0 mi South 9.2 mph - N/A   Clear